TimeCDT,TemperatureF,Dew PointF,Humidity,Sea Level PressureIn,VisibilityMPH,Wind Direction,Wind SpeedMPH,Gust SpeedMPH,PrecipitationIn,Events,Conditions,WindDirDegrees,DateUTC
12:52 AM,48.9,46.0,90,30.09,10.0,Calm,Calm,-,N/A,,Clear,0,2013-10-08 05:52:00
1:52 AM,46.9,44.1,90,30.09,10.0,Calm,Calm,-,N/A,,Clear,0,2013-10-08 06:52:00
2:52 AM,46.0,45.0,96,30.09,9.0,Calm,Calm,-,N/A,,Clear,0,2013-10-08 07:52:00
3:52 AM,46.0,45.0,96,30.10,10.0,Calm,Calm,-,N/A,,Clear,0,2013-10-08 08:52:00
4:52 AM,45.0,43.0,93,30.12,10.0,Calm,Calm,-,N/A,,Clear,0,2013-10-08 09:52:00
5:52 AM,44.1,43.0,96,30.12,9.0,Calm,Calm,-,N/A,,Clear,0,2013-10-08 10:52:00
6:52 AM,44.1,43.0,96,30.13,10.0,Calm,Calm,-,N/A,,Clear,0,2013-10-08 11:52:00
7:52 AM,46.0,44.1,93,30.14,10.0,Calm,Calm,-,N/A,,Clear,0,2013-10-08 12:52:00
8:52 AM,51.1,46.9,86,30.15,10.0,Calm,Calm,-,N/A,,Clear,0,2013-10-08 13:52:00
9:52 AM,59.0,50.0,72,30.15,10.0,SSE,4.6,-,N/A,,Clear,150,2013-10-08 14:52:00
10:52 AM,68.0,48.9,50,30.13,10.0,South,10.4,-,N/A,,Clear,180,2013-10-08 15:52:00
11:52 AM,73.0,45.0,37,30.13,10.0,South,15.0,19.6,N/A,,Clear,190,2013-10-08 16:52:00
12:52 PM,75.0,43.0,32,30.11,10.0,South,13.8,-,N/A,,Clear,190,2013-10-08 17:52:00
1:52 PM,75.9,41.0,29,30.08,10.0,SSW,13.8,-,N/A,,Clear,200,2013-10-08 18:52:00
2:52 PM,77.0,43.0,30,30.07,10.0,South,13.8,-,N/A,,Clear,190,2013-10-08 19:52:00
3:52 PM,77.0,45.0,32,30.06,10.0,South,11.5,-,N/A,,Clear,170,2013-10-08 20:52:00
4:52 PM,75.0,46.9,37,30.06,10.0,SSE,15.0,-,N/A,,Clear,160,2013-10-08 21:52:00
5:52 PM,73.0,45.0,37,30.06,10.0,SSE,11.5,-,N/A,,Clear,160,2013-10-08 22:52:00
6:52 PM,66.9,45.0,45,30.07,10.0,South,6.9,-,N/A,,Clear,170,2013-10-08 23:52:00
7:52 PM,63.0,45.0,52,30.08,10.0,SSE,5.8,-,N/A,,Clear,160,2013-10-09 00:52:00
8:52 PM,59.0,46.0,62,30.10,10.0,SE,3.5,-,N/A,,Clear,140,2013-10-09 01:52:00
9:52 PM,55.9,46.0,69,30.10,10.0,SE,5.8,-,N/A,,Clear,140,2013-10-09 02:52:00
10:52 PM,55.0,46.0,72,30.11,10.0,Calm,Calm,-,N/A,,Clear,0,2013-10-09 03:52:00
11:52 PM,54.0,46.0,75,30.10,10.0,Calm,Calm,-,N/A,,Clear,0,2013-10-09 04:52:00